DRGN03 YWLM-YAMB

Flight info

Callsign DRGN03
Flight time 1h 37m
Altitude 29000
Route OLTIN W702 LALIB DCT OLRON DCT NBR W456 MOR W572 OK
Aircraft A332/H-SDE3GHIJ2J3J5M1RVWXY/LB2D1

Departure

Time 2026-04-27 02:10
Airport Newcastle Airport (YWLM)

Arrival

Time 2026-04-27 03:47
Airport RAAF Base Amberley (YAMB)
Time Latitude Longitude Altitude Speed Heading
2026-04-27 01:55 -32.79607 151.83918 39 ft 0 kts 190°
2026-04-27 02:03 -32.79613 151.83917 39 ft 3 kts 190°
2026-04-27 02:04 -32.79666 151.83910 39 ft 12 kts 177°
2026-04-27 02:04 -32.79734 151.83976 39 ft 13 kts 120°
2026-04-27 02:04 -32.79789 151.84052 41 ft 12 kts 130°
2026-04-27 02:04 -32.79847 151.84137 41 ft 15 kts 129°
2026-04-27 02:05 -32.79927 151.84243 39 ft 19 kts 131°
2026-04-27 02:05 -32.80020 151.84374 39 ft 22 kts 130°
2026-04-27 02:05 -32.80120 151.84514 36 ft 11 kts 131°
2026-04-27 02:05 -32.80139 151.84541 36 ft 0 kts 131°
2026-04-27 02:07 -32.80145 151.84548 35 ft 4 kts 131°
2026-04-27 02:07 -32.80176 151.84590 37 ft 10 kts 130°
2026-04-27 02:07 -32.80231 151.84670 38 ft 16 kts 130°
2026-04-27 02:08 -32.80283 151.84741 38 ft 18 kts 130°
2026-04-27 02:08 -32.80369 151.84828 40 ft 14 kts 165°
2026-04-27 02:08 -32.80434 151.84799 40 ft 11 kts 214°
2026-04-27 02:08 -32.80466 151.84722 39 ft 11 kts 274°
2026-04-27 02:09 -32.80444 151.84680 38 ft 0 kts 310°
2026-04-27 02:09 -32.80328 151.84518 37 ft 73 kts 310°
2026-04-27 02:09 -32.79798 151.83772 46 ft 159 kts 311°
2026-04-27 02:10 -32.79042 151.82691 715 ft 173 kts 310°
2026-04-27 02:10 -32.78272 151.81589 1732 ft 176 kts 313°
2026-04-27 02:10 -32.77514 151.80362 2416 ft 193 kts 300°
2026-04-27 02:10 -32.76915 151.78853 2938 ft 212 kts 294°
2026-04-27 02:11 -32.76324 151.77139 3419 ft 235 kts 293°
2026-04-27 02:11 -32.75647 151.75281 3840 ft 254 kts 295°
2026-04-27 02:11 -32.74895 151.73345 4437 ft 260 kts 296°
2026-04-27 02:11 -32.74110 151.71401 5061 ft 266 kts 297°
2026-04-27 02:12 -32.73275 151.69375 5630 ft 277 kts 297°
2026-04-27 02:12 -32.72428 151.67322 6532 ft 278 kts 296°
2026-04-27 02:12 -32.71570 151.65247 7347 ft 282 kts 296°
2026-04-27 02:12 -32.70707 151.63160 8129 ft 287 kts 296°
2026-04-27 02:13 -32.69817 151.61015 8948 ft 292 kts 295°
2026-04-27 02:13 -32.68912 151.58834 9820 ft 296 kts 295°
2026-04-27 02:13 -32.67993 151.56614 10500 ft 307 kts 295°
2026-04-27 02:13 -32.67014 151.54240 10800 ft 331 kts 295°
2026-04-27 02:14 -32.65973 151.51715 11234 ft 348 kts 295°
2026-04-27 02:14 -32.64901 151.49125 12073 ft 351 kts 295°
2026-04-27 02:14 -32.63831 151.46537 12904 ft 355 kts 295°
2026-04-27 02:14 -32.62720 151.43854 13752 ft 359 kts 295°
2026-04-27 02:15 -32.61628 151.41216 14532 ft 363 kts 295°
2026-04-27 02:15 -32.60502 151.38500 15223 ft 369 kts 296°
2026-04-27 02:15 -32.59358 151.35739 15965 ft 374 kts 296°
2026-04-27 02:15 -32.58200 151.32949 16682 ft 380 kts 296°
2026-04-27 02:16 -32.57026 151.30122 17446 ft 384 kts 296°
2026-04-27 02:16 -32.55716 151.27348 18179 ft 388 kts 306°
2026-04-27 02:16 -32.53952 151.24898 18880 ft 391 kts 317°
2026-04-27 02:16 -32.51812 151.22905 19574 ft 393 kts 327°
2026-04-27 02:17 -32.49546 151.21050 20251 ft 398 kts 326°
2026-04-27 02:17 -32.47260 151.19165 20941 ft 402 kts 326°
2026-04-27 02:17 -32.44957 151.17257 21621 ft 407 kts 326°
2026-04-27 02:17 -32.42625 151.15319 22346 ft 411 kts 326°
2026-04-27 02:18 -32.40268 151.13361 23062 ft 416 kts 325°
2026-04-27 02:18 -32.37890 151.11385 23815 ft 419 kts 325°
2026-04-27 02:18 -32.35489 151.09391 24393 ft 424 kts 325°
2026-04-27 02:18 -32.33048 151.07378 25033 ft 428 kts 325°
2026-04-27 02:19 -32.30619 151.05390 25647 ft 432 kts 325°
2026-04-27 02:19 -32.28135 151.03354 26264 ft 436 kts 325°
2026-04-27 02:19 -32.25635 151.01302 26893 ft 440 kts 325°
2026-04-27 02:19 -32.23102 150.99221 27169 ft 444 kts 325°
2026-04-27 02:20 -32.20568 150.97138 27237 ft 444 kts 325°
2026-04-27 02:20 -32.18037 150.95056 27238 ft 443 kts 325°
2026-04-27 02:20 -32.15512 150.92981 27242 ft 443 kts 325°
2026-04-27 02:20 -32.12978 150.90901 27238 ft 443 kts 325°
2026-04-27 02:21 -32.10438 150.88818 27238 ft 443 kts 325°
2026-04-27 02:21 -32.07911 150.86746 27239 ft 442 kts 325°
2026-04-27 02:21 -32.05385 150.84677 27239 ft 443 kts 325°
2026-04-27 02:21 -32.02758 150.82755 27235 ft 443 kts 332°
2026-04-27 02:22 -31.99983 150.81188 27234 ft 443 kts 335°
2026-04-27 02:22 -31.97213 150.79692 27234 ft 443 kts 335°
2026-04-27 02:22 -31.94419 150.78172 27236 ft 443 kts 335°
2026-04-27 02:22 -31.91620 150.76647 27230 ft 443 kts 335°
2026-04-27 02:23 -31.88824 150.75123 27232 ft 442 kts 335°
2026-04-27 02:23 -31.86036 150.73605 27232 ft 442 kts 335°
2026-04-27 02:23 -31.83236 150.72082 27227 ft 442 kts 335°
2026-04-27 02:23 -31.80443 150.70564 27228 ft 442 kts 335°
2026-04-27 02:24 -31.77649 150.69047 27227 ft 442 kts 335°
2026-04-27 02:24 -31.74860 150.67533 27224 ft 441 kts 335°
2026-04-27 02:24 -31.72072 150.66021 27224 ft 441 kts 335°
2026-04-27 02:24 -31.69286 150.64511 27222 ft 441 kts 335°
2026-04-27 02:25 -31.66498 150.63001 27217 ft 441 kts 335°
2026-04-27 02:25 -31.63705 150.61489 27220 ft 442 kts 335°
2026-04-27 02:25 -31.60915 150.59980 27219 ft 441 kts 335°
2026-04-27 02:25 -31.58128 150.58474 27214 ft 441 kts 335°
2026-04-27 02:26 -31.55338 150.56967 27214 ft 441 kts 335°
2026-04-27 02:26 -31.52551 150.55462 27214 ft 441 kts 335°
2026-04-27 02:26 -31.49761 150.53957 27214 ft 441 kts 335°
2026-04-27 02:26 -31.46970 150.52452 27209 ft 442 kts 335°
2026-04-27 02:27 -31.44177 150.50948 27210 ft 441 kts 335°
2026-04-27 02:27 -31.41392 150.49448 27211 ft 441 kts 335°
2026-04-27 02:27 -31.38634 150.47964 27210 ft 442 kts 335°
2026-04-27 02:27 -31.35846 150.46465 27211 ft 442 kts 335°
2026-04-27 02:28 -31.33048 150.44961 27208 ft 441 kts 335°
2026-04-27 02:28 -31.30254 150.43461 27209 ft 442 kts 335°
2026-04-27 02:28 -31.27456 150.41959 27205 ft 442 kts 335°
2026-04-27 02:28 -31.24666 150.40463 27205 ft 442 kts 335°
2026-04-27 02:29 -31.21871 150.38965 27204 ft 442 kts 335°
2026-04-27 02:29 -31.19079 150.37470 27205 ft 442 kts 335°
2026-04-27 02:29 -31.16283 150.35973 27203 ft 442 kts 335°
2026-04-27 02:29 -31.13484 150.34476 27201 ft 442 kts 335°
2026-04-27 02:30 -31.10684 150.32979 27200 ft 442 kts 335°
2026-04-27 02:30 -31.07886 150.31485 27203 ft 442 kts 335°
2026-04-27 02:30 -31.05083 150.29988 27202 ft 442 kts 335°
2026-04-27 02:30 -31.02319 150.28513 27201 ft 442 kts 335°
2026-04-27 02:31 -30.99517 150.27019 27200 ft 442 kts 335°
2026-04-27 02:31 -30.96721 150.25529 27196 ft 442 kts 335°
2026-04-27 02:31 -30.93977 150.23905 27199 ft 442 kts 330°
2026-04-27 02:31 -30.91309 150.22126 27197 ft 443 kts 330°
2026-04-27 02:32 -30.88635 150.20345 27198 ft 443 kts 330°
2026-04-27 02:32 -30.85959 150.18569 27199 ft 443 kts 330°
2026-04-27 02:32 -30.83284 150.16796 27199 ft 443 kts 330°
2026-04-27 02:32 -30.80612 150.15029 27192 ft 442 kts 330°
2026-04-27 02:33 -30.77928 150.13255 27194 ft 442 kts 330°
2026-04-27 02:33 -30.75253 150.11487 27195 ft 443 kts 330°
2026-04-27 02:33 -30.72570 150.09716 27190 ft 443 kts 330°
2026-04-27 02:33 -30.69892 150.07949 27192 ft 443 kts 330°
2026-04-27 02:34 -30.67213 150.06183 27193 ft 443 kts 330°
2026-04-27 02:34 -30.64533 150.04417 27190 ft 443 kts 330°
2026-04-27 02:34 -30.61882 150.02671 27193 ft 443 kts 330°
2026-04-27 02:34 -30.59201 150.00907 27191 ft 443 kts 330°
2026-04-27 02:35 -30.56519 149.99143 27192 ft 443 kts 330°
2026-04-27 02:35 -30.53836 149.97380 27194 ft 443 kts 330°
2026-04-27 02:35 -30.51123 149.95599 27191 ft 457 kts 330°
2026-04-27 02:35 -30.48295 149.93742 27188 ft 476 kts 330°
2026-04-27 02:36 -30.45357 149.91815 27189 ft 492 kts 330°
2026-04-27 02:36 -30.42382 149.89866 27185 ft 492 kts 330°
2026-04-27 02:36 -30.39399 149.87912 27186 ft 491 kts 330°
2026-04-27 02:36 -30.36418 149.85974 27187 ft 491 kts 332°
2026-04-27 02:37 -30.33271 149.84421 27182 ft 491 kts 342°
2026-04-27 02:37 -30.29949 149.83499 27179 ft 491 kts 352°
2026-04-27 02:37 -30.26583 149.83229 27183 ft 490 kts
2026-04-27 02:37 -30.23174 149.83329 27181 ft 490 kts
2026-04-27 02:38 -30.19762 149.83423 27180 ft 490 kts
2026-04-27 02:38 -30.16342 149.83512 27181 ft 490 kts
2026-04-27 02:38 -30.12923 149.83597 27180 ft 490 kts
2026-04-27 02:38 -30.09511 149.83682 27182 ft 490 kts
2026-04-27 02:39 -30.06105 149.83767 27182 ft 490 kts
2026-04-27 02:39 -30.02687 149.83852 27180 ft 490 kts
2026-04-27 02:39 -29.99277 149.83937 27180 ft 490 kts
2026-04-27 02:39 -29.95865 149.84022 27175 ft 490 kts
2026-04-27 02:40 -29.92486 149.84106 27175 ft 490 kts
2026-04-27 02:40 -29.89071 149.84192 27177 ft 490 kts
2026-04-27 02:40 -29.85651 149.84277 27175 ft 490 kts
2026-04-27 02:40 -29.82280 149.84361 27177 ft 478 kts
2026-04-27 02:41 -29.78999 149.84443 27177 ft 463 kts
2026-04-27 02:41 -29.75829 149.84522 27176 ft 449 kts
2026-04-27 02:41 -29.72749 149.84599 27169 ft 436 kts
2026-04-27 02:41 -29.69750 149.84674 27171 ft 424 kts
2026-04-27 02:42 -29.66835 149.84747 27170 ft 426 kts
2026-04-27 02:42 -29.63848 149.84822 27175 ft 430 kts
2026-04-27 02:42 -29.60852 149.84896 27175 ft 430 kts
2026-04-27 02:42 -29.57870 149.84970 27171 ft 428 kts
2026-04-27 02:43 -29.54892 149.85043 27173 ft 429 kts
2026-04-27 02:43 -29.51904 149.85117 27175 ft 429 kts
2026-04-27 02:43 -29.48914 149.85188 27172 ft 429 kts
2026-04-27 02:43 -29.45946 149.84832 27168 ft 430 kts 347°
2026-04-27 02:44 -29.43132 149.83648 27171 ft 431 kts 332°
2026-04-27 02:44 -29.40694 149.81741 27164 ft 431 kts 317°
2026-04-27 02:44 -29.38712 149.79177 27167 ft 430 kts 303°
2026-04-27 02:44 -29.37346 149.76140 27168 ft 428 kts 288°
2026-04-27 02:45 -29.36683 149.72823 27165 ft 426 kts 274°
2026-04-27 02:45 -29.36764 149.69446 27169 ft 424 kts 259°
2026-04-27 02:45 -29.37415 149.66154 27167 ft 422 kts 249°
2026-04-27 02:45 -29.38676 149.63133 27165 ft 419 kts 235°
2026-04-27 02:46 -29.40543 149.60593 27170 ft 416 kts 221°
2026-04-27 02:46 -29.42817 149.58551 27166 ft 415 kts 213°
2026-04-27 02:46 -29.45260 149.56784 27165 ft 414 kts 209°
2026-04-27 02:46 -29.47757 149.55128 27165 ft 414 kts 208°
2026-04-27 02:47 -29.50260 149.53499 27167 ft 414 kts 208°
2026-04-27 02:47 -29.52763 149.51864 27173 ft 414 kts 208°
2026-04-27 02:47 -29.55231 149.50237 27170 ft 414 kts 208°
2026-04-27 02:47 -29.57759 149.48561 27173 ft 414 kts 208°
2026-04-27 02:48 -29.60218 149.46925 27170 ft 414 kts 208°
2026-04-27 02:48 -29.62715 149.45262 27173 ft 414 kts 208°
2026-04-27 02:48 -29.65210 149.43598 27168 ft 414 kts 208°
2026-04-27 02:48 -29.67707 149.41934 27169 ft 414 kts 208°
2026-04-27 02:49 -29.70199 149.40274 27167 ft 414 kts 208°
2026-04-27 02:49 -29.72694 149.38612 27169 ft 414 kts 208°
2026-04-27 02:49 -29.75184 149.36954 27168 ft 414 kts 208°
2026-04-27 02:49 -29.77681 149.35291 27168 ft 414 kts 208°
2026-04-27 02:50 -29.80173 149.33631 27167 ft 414 kts 208°
2026-04-27 02:50 -29.82722 149.32093 27169 ft 412 kts 200°
2026-04-27 02:50 -29.85475 149.31234 27170 ft 411 kts 187°
2026-04-27 02:50 -29.88325 149.31165 27175 ft 410 kts 173°
2026-04-27 02:51 -29.91060 149.31875 27173 ft 409 kts 159°
2026-04-27 02:51 -29.93602 149.33340 27176 ft 409 kts 146°
2026-04-27 02:51 -29.95760 149.35464 27169 ft 409 kts 132°
2026-04-27 02:51 -29.97416 149.38133 27173 ft 411 kts 118°
2026-04-27 02:52 -29.98470 149.41194 27170 ft 413 kts 105°
2026-04-27 02:52 -29.98851 149.44477 27173 ft 414 kts 91°
2026-04-27 02:52 -29.98528 149.47781 27172 ft 417 kts 77°
2026-04-27 02:52 -29.97510 149.50908 27175 ft 419 kts 63°
2026-04-27 02:53 -29.95842 149.53676 27173 ft 422 kts 49°
2026-04-27 02:53 -29.93622 149.55891 27171 ft 424 kts 34°
2026-04-27 02:53 -29.91939 149.57051 27174 ft 425 kts 31°
2026-04-27 02:53 -29.89388 149.58781 27169 ft 425 kts 32°
2026-04-27 02:54 -29.86837 149.60513 27171 ft 425 kts 31°
2026-04-27 02:54 -29.84286 149.62229 27171 ft 425 kts 31°
2026-04-27 02:54 -29.81726 149.63936 27176 ft 425 kts 31°
2026-04-27 02:54 -29.79166 149.65636 27175 ft 425 kts 31°
2026-04-27 02:55 -29.76597 149.67337 27168 ft 425 kts 31°
2026-04-27 02:55 -29.74063 149.69016 27170 ft 425 kts 31°
2026-04-27 02:55 -29.71495 149.70716 27171 ft 425 kts 31°
2026-04-27 02:55 -29.68929 149.72415 27166 ft 425 kts 31°
2026-04-27 02:56 -29.66370 149.74111 27167 ft 425 kts 31°
2026-04-27 02:56 -29.63807 149.75809 27167 ft 425 kts 31°
2026-04-27 02:56 -29.61245 149.77508 27169 ft 425 kts 31°
2026-04-27 02:56 -29.58679 149.79209 27166 ft 425 kts 31°
2026-04-27 02:57 -29.56115 149.80909 27166 ft 425 kts 31°
2026-04-27 02:57 -29.53559 149.82605 27168 ft 425 kts 31°
2026-04-27 02:57 -29.50992 149.84307 27166 ft 425 kts 31°
2026-04-27 02:57 -29.48417 149.85901 27166 ft 426 kts 24°
2026-04-27 02:58 -29.45567 149.86841 27167 ft 429 kts
2026-04-27 02:58 -29.42589 149.86942 27167 ft 430 kts 354°
2026-04-27 02:58 -29.39670 149.86192 27160 ft 431 kts 340°
2026-04-27 02:58 -29.36998 149.84635 27165 ft 431 kts 325°
2026-04-27 02:59 -29.34747 149.82374 27159 ft 431 kts 310°
2026-04-27 02:59 -29.33060 149.79555 27165 ft 429 kts 295°
2026-04-27 02:59 -29.32040 149.76355 27164 ft 427 kts 281°
2026-04-27 02:59 -29.31750 149.72978 27167 ft 425 kts 266°
2026-04-27 03:00 -29.32204 149.69659 27163 ft 422 kts 251°
2026-04-27 03:00 -29.33370 149.66590 27165 ft 419 kts 237°
2026-04-27 03:00 -29.35157 149.63970 27165 ft 417 kts 223°
2026-04-27 03:00 -29.37417 149.61923 27168 ft 414 kts 209°
2026-04-27 03:01 -29.39946 149.60320 27161 ft 414 kts 206°
2026-04-27 03:01 -29.42477 149.58748 27163 ft 413 kts 206°
2026-04-27 03:01 -29.44969 149.57186 27165 ft 414 kts 206°
2026-04-27 03:01 -29.47488 149.55570 27164 ft 413 kts 205°
2026-04-27 03:02 -29.50007 149.53957 27165 ft 414 kts 205°
2026-04-27 03:02 -29.52515 149.52344 27166 ft 414 kts 206°
2026-04-27 03:02 -29.55020 149.50705 27169 ft 414 kts 206°
2026-04-27 03:02 -29.57517 149.49046 27165 ft 414 kts 207°
2026-04-27 03:03 -29.60009 149.47375 27167 ft 414 kts 207°
2026-04-27 03:03 -29.64989 149.44035 27167 ft 414 kts 207°
2026-04-27 03:03 -29.67476 149.42364 27162 ft 414 kts 207°
2026-04-27 03:04 -29.69965 149.40689 27163 ft 414 kts 207°
2026-04-27 03:04 -29.72446 149.39018 27164 ft 414 kts 207°
2026-04-27 03:04 -29.74938 149.37341 27165 ft 414 kts 208°
2026-04-27 03:04 -29.77424 149.35663 27162 ft 414 kts 208°
2026-04-27 03:05 -29.79905 149.33983 27166 ft 414 kts 208°
2026-04-27 03:05 -29.82390 149.32401 27171 ft 413 kts 200°
2026-04-27 03:05 -29.85127 149.31462 27165 ft 411 kts 186°
2026-04-27 03:05 -29.87976 149.31328 27165 ft 410 kts 172°
2026-04-27 03:06 -29.90765 149.31982 27164 ft 410 kts 159°
2026-04-27 03:06 -29.93338 149.33392 27167 ft 409 kts 145°
2026-04-27 03:06 -29.95532 149.35479 27169 ft 410 kts 131°
2026-04-27 03:06 -29.97219 149.38122 27167 ft 411 kts 118°
2026-04-27 03:07 -29.98301 149.41176 27167 ft 413 kts 104°
2026-04-27 03:07 -29.98701 149.44458 27165 ft 415 kts 90°
2026-04-27 03:07 -29.98386 149.47768 27163 ft 417 kts 76°
2026-04-27 03:07 -29.97365 149.50904 27164 ft 420 kts 62°
2026-04-27 03:08 -29.95687 149.53666 27170 ft 423 kts 47°
2026-04-27 03:08 -29.93439 149.55853 27164 ft 425 kts 32°
2026-04-27 03:08 -29.90884 149.57576 27164 ft 425 kts 30°
2026-04-27 03:08 -29.88363 149.59282 27166 ft 425 kts 30°
2026-04-27 03:09 -29.85810 149.61013 27162 ft 425 kts 30°
2026-04-27 03:09 -29.83255 149.62735 27164 ft 425 kts 30°
2026-04-27 03:09 -29.80697 149.64449 27167 ft 425 kts 29°
2026-04-27 03:09 -29.78132 149.66150 27165 ft 425 kts 30°
2026-04-27 03:10 -29.75562 149.67858 27162 ft 431 kts 30°
2026-04-27 03:10 -29.72923 149.69658 27162 ft 449 kts 37°
2026-04-27 03:10 -29.70255 149.71669 27163 ft 466 kts 37°
2026-04-27 03:10 -29.67478 149.73726 27161 ft 483 kts 36°
2026-04-27 03:11 -29.64592 149.75758 27162 ft 488 kts 34°
2026-04-27 03:11 -29.61663 149.77733 27162 ft 487 kts 33°
2026-04-27 03:11 -29.58720 149.79671 27161 ft 487 kts 33°
2026-04-27 03:11 -29.55765 149.81600 27163 ft 488 kts 33°
2026-04-27 03:12 -29.52820 149.83538 27161 ft 487 kts 33°
2026-04-27 03:12 -29.49883 149.85474 27158 ft 488 kts 33°
2026-04-27 03:12 -29.47036 149.87581 27144 ft 487 kts 40°
2026-04-27 03:12 -29.44446 149.90000 27152 ft 486 kts 44°
2026-04-27 03:13 -29.41883 149.92520 27151 ft 486 kts 44°
2026-04-27 03:13 -29.39302 149.95027 27152 ft 486 kts 43°
2026-04-27 03:13 -29.36692 149.97504 27151 ft 486 kts 42°
2026-04-27 03:13 -29.34063 149.99948 27149 ft 486 kts 41°
2026-04-27 03:14 -29.31418 150.02375 27147 ft 486 kts 41°
2026-04-27 03:14 -29.28773 150.04788 27148 ft 486 kts 41°
2026-04-27 03:14 -29.26125 150.07197 27164 ft 486 kts 41°
2026-04-27 03:14 -29.23469 150.09612 27162 ft 486 kts 41°
2026-04-27 03:15 -29.20818 150.12022 27156 ft 486 kts 41°
2026-04-27 03:15 -29.18201 150.14401 27162 ft 486 kts 41°
2026-04-27 03:15 -29.15556 150.16824 27153 ft 486 kts 42°
2026-04-27 03:15 -29.12929 150.19266 27153 ft 486 kts 42°
2026-04-27 03:16 -29.10280 150.21683 27156 ft 487 kts 40°
2026-04-27 03:16 -29.07616 150.24068 27153 ft 486 kts 40°
2026-04-27 03:16 -29.04946 150.26460 27151 ft 486 kts 40°
2026-04-27 03:16 -29.02303 150.28856 27155 ft 486 kts 41°
2026-04-27 03:17 -28.99668 150.31294 27152 ft 486 kts 41°
2026-04-27 03:17 -28.97027 150.33719 27156 ft 486 kts 40°
2026-04-27 03:17 -28.94359 150.36106 27157 ft 486 kts 39°
2026-04-27 03:17 -28.91700 150.38476 27153 ft 486 kts 40°
2026-04-27 03:18 -28.89071 150.40831 27150 ft 486 kts 40°
2026-04-27 03:18 -28.86410 150.43229 27159 ft 486 kts 40°
2026-04-27 03:18 -28.83761 150.45624 27149 ft 486 kts 40°
2026-04-27 03:18 -28.81114 150.48019 27151 ft 486 kts 40°
2026-04-27 03:19 -28.78466 150.50416 27155 ft 486 kts 40°
2026-04-27 03:19 -28.75809 150.52820 27151 ft 486 kts 40°
2026-04-27 03:19 -28.73159 150.55216 27155 ft 486 kts 40°
2026-04-27 03:19 -28.70511 150.57609 27148 ft 486 kts 40°
2026-04-27 03:20 -28.67863 150.60000 27153 ft 486 kts 40°
2026-04-27 03:20 -28.65211 150.62394 27151 ft 486 kts 40°
2026-04-27 03:20 -28.62565 150.64780 27147 ft 486 kts 40°
2026-04-27 03:20 -28.59907 150.67177 27146 ft 486 kts 40°
2026-04-27 03:21 -28.57258 150.69564 27149 ft 486 kts 40°
2026-04-27 03:21 -28.54608 150.71949 27143 ft 486 kts 40°
2026-04-27 03:21 -28.51950 150.74340 27144 ft 486 kts 40°
2026-04-27 03:21 -28.49333 150.76694 27150 ft 486 kts 40°
2026-04-27 03:22 -28.46674 150.79084 27147 ft 487 kts 39°
2026-04-27 03:22 -28.44022 150.81467 27144 ft 487 kts 39°
2026-04-27 03:22 -28.41364 150.83853 27148 ft 487 kts 39°
2026-04-27 03:22 -28.38703 150.86239 27145 ft 487 kts 39°
2026-04-27 03:23 -28.36042 150.88626 27148 ft 487 kts 39°
2026-04-27 03:23 -28.33379 150.91012 27147 ft 487 kts 39°
2026-04-27 03:23 -28.30721 150.93393 27149 ft 487 kts 39°
2026-04-27 03:23 -28.28058 150.95776 27146 ft 487 kts 39°
2026-04-27 03:24 -28.25396 150.98156 27152 ft 487 kts 39°
2026-04-27 03:24 -28.22733 151.00536 27147 ft 487 kts 39°
2026-04-27 03:24 -28.20070 151.02915 27151 ft 487 kts 39°
2026-04-27 03:24 -28.17442 151.05262 27147 ft 487 kts 39°
2026-04-27 03:25 -28.14785 151.07632 27153 ft 487 kts 39°
2026-04-27 03:25 -28.12119 151.10008 27149 ft 487 kts 39°
2026-04-27 03:25 -28.09456 151.12382 27150 ft 487 kts 39°
2026-04-27 03:25 -28.06797 151.14751 27151 ft 487 kts 39°
2026-04-27 03:26 -28.04129 151.17126 27148 ft 487 kts 39°
2026-04-27 03:26 -28.01466 151.19495 27153 ft 487 kts 39°
2026-04-27 03:26 -27.98804 151.21861 27150 ft 487 kts 39°
2026-04-27 03:26 -27.96147 151.24230 27152 ft 486 kts 39°
2026-04-27 03:27 -27.93483 151.26604 27151 ft 486 kts 39°
2026-04-27 03:27 -27.90826 151.28966 27153 ft 486 kts 39°
2026-04-27 03:27 -27.88167 151.31332 27151 ft 485 kts 39°
2026-04-27 03:27 -27.85518 151.33687 27153 ft 485 kts 39°
2026-04-27 03:28 -27.82869 151.36038 27152 ft 484 kts 39°
2026-04-27 03:28 -27.80213 151.38388 27152 ft 484 kts 39°
2026-04-27 03:28 -27.77555 151.40723 27151 ft 484 kts 38°
2026-04-27 03:28 -27.74883 151.43040 27063 ft 484 kts 37°
2026-04-27 03:29 -27.72216 151.45358 26812 ft 483 kts 38°
2026-04-27 03:29 -27.69566 151.47677 26572 ft 480 kts 38°
2026-04-27 03:29 -27.66939 151.49988 26334 ft 478 kts 38°
2026-04-27 03:29 -27.64343 151.52278 26194 ft 470 kts 38°
2026-04-27 03:30 -27.61816 151.54507 25949 ft 462 kts 38°
2026-04-27 03:30 -27.59313 151.56717 25714 ft 452 kts 38°
2026-04-27 03:30 -27.56852 151.58888 25286 ft 447 kts 38°
2026-04-27 03:30 -27.54383 151.61064 24630 ft 450 kts 38°
2026-04-27 03:31 -27.51911 151.63242 23985 ft 451 kts 38°
2026-04-27 03:31 -27.49434 151.65421 23286 ft 452 kts 38°
2026-04-27 03:31 -27.46958 151.67598 22643 ft 450 kts 38°
2026-04-27 03:31 -27.44565 151.69852 22000 ft 447 kts 45°
2026-04-27 03:32 -27.42650 151.72546 21667 ft 437 kts 58°
2026-04-27 03:32 -27.41329 151.75546 21160 ft 431 kts 70°
2026-04-27 03:32 -27.40641 151.78810 20641 ft 427 kts 84°
2026-04-27 03:32 -27.40649 151.82167 20112 ft 422 kts 97°
2026-04-27 03:33 -27.41338 151.85307 19579 ft 419 kts 110°
2026-04-27 03:33 -27.42662 151.88186 18879 ft 411 kts 123°
2026-04-27 03:33 -27.44297 151.90857 17865 ft 406 kts 123°
2026-04-27 03:33 -27.45734 151.93507 17102 ft 396 kts 118°
2026-04-27 03:34 -27.46928 151.96226 16630 ft 377 kts 113°
2026-04-27 03:34 -27.47906 151.98873 16359 ft 358 kts 111°
2026-04-27 03:34 -27.48783 152.01500 16044 ft 359 kts 109°
2026-04-27 03:34 -27.49638 152.04174 15468 ft 367 kts 109°
2026-04-27 03:35 -27.50495 152.06896 14898 ft 368 kts 109°
2026-04-27 03:35 -27.51347 152.09608 14313 ft 366 kts 109°
2026-04-27 03:35 -27.52200 152.12316 13689 ft 365 kts 109°
2026-04-27 03:35 -27.53049 152.14991 13136 ft 360 kts 110°
2026-04-27 03:36 -27.53896 152.17625 12572 ft 356 kts 110°
2026-04-27 03:36 -27.54731 152.20227 12015 ft 347 kts 110°
2026-04-27 03:36 -27.55533 152.22744 11487 ft 338 kts 110°
2026-04-27 03:36 -27.56318 152.25230 10954 ft 336 kts 110°
2026-04-27 03:37 -27.57086 152.27669 10579 ft 329 kts 110°
2026-04-27 03:37 -27.57840 152.30068 10444 ft 313 kts 110°
2026-04-27 03:37 -27.58548 152.32323 10317 ft 298 kts 110°
2026-04-27 03:37 -27.59215 152.34452 10167 ft 284 kts 110°
2026-04-27 03:38 -27.59861 152.36515 9946 ft 273 kts 110°
2026-04-27 03:38 -27.60480 152.38494 9573 ft 266 kts 110°
2026-04-27 03:38 -27.61089 152.40438 9271 ft 258 kts 110°
2026-04-27 03:38 -27.61678 152.42319 8963 ft 251 kts 110°
2026-04-27 03:39 -27.62249 152.44153 8652 ft 244 kts 110°
2026-04-27 03:39 -27.62623 152.45350 8451 ft 245 kts 110°
2026-04-27 03:39 -27.62959 152.47320 8110 ft 269 kts 89°
2026-04-27 03:39 -27.62441 152.49372 7855 ft 278 kts 63°
2026-04-27 03:40 -27.61187 152.50997 7673 ft 276 kts 38°
2026-04-27 03:40 -27.59406 152.51829 7505 ft 285 kts 12°
2026-04-27 03:40 -27.57397 152.51868 7353 ft 288 kts
2026-04-27 03:40 -27.55397 152.51792 7170 ft 287 kts
2026-04-27 03:41 -27.53398 152.51734 7007 ft 288 kts
2026-04-27 03:41 -27.51420 152.51955 6833 ft 282 kts 15°
2026-04-27 03:41 -27.49550 152.52551 6606 ft 277 kts 24°
2026-04-27 03:41 -27.47959 152.53647 6147 ft 268 kts 49°
2026-04-27 03:42 -27.46957 152.55359 5596 ft 261 kts 70°
2026-04-27 03:42 -27.46263 152.57238 5093 ft 258 kts 71°
2026-04-27 03:42 -27.45584 152.59103 4578 ft 255 kts 73°
2026-04-27 03:42 -27.45384 152.61043 3979 ft 250 kts 100°
2026-04-27 03:43 -27.46098 152.62783 3494 ft 245 kts 132°
2026-04-27 03:43 -27.47443 152.63945 3173 ft 245 kts 149°
2026-04-27 03:43 -27.48950 152.64743 2849 ft 239 kts 155°
2026-04-27 03:43 -27.50482 152.65406 2524 ft 231 kts 157°
2026-04-27 03:44 -27.51903 152.66033 2253 ft 209 kts 156°
2026-04-27 03:44 -27.53204 152.66601 1964 ft 192 kts 156°
2026-04-27 03:44 -27.54403 152.67123 1741 ft 178 kts 156°
2026-04-27 03:44 -27.55499 152.67607 1503 ft 160 kts 153°
2026-04-27 03:45 -27.56482 152.68038 1302 ft 144 kts 154°
2026-04-27 03:45 -27.57401 152.68440 1104 ft 144 kts 155°
2026-04-27 03:45 -27.58347 152.68853 907 ft 144 kts 156°
2026-04-27 03:45 -27.59256 152.69256 725 ft 139 kts 154°
2026-04-27 03:46 -27.60191 152.69644 540 ft 149 kts 155°
2026-04-27 03:46 -27.61127 152.70054 351 ft 140 kts 151°
2026-04-27 03:46 -27.62011 152.70449 163 ft 133 kts 152°
2026-04-27 03:46 -27.62862 152.70840 106 ft 117 kts 161°
2026-04-27 03:47 -27.63439 152.71081 104 ft 59 kts 159°
2026-04-27 03:47 -27.63737 152.71211 109 ft 42 kts 159°
2026-04-27 03:47 -27.63982 152.71317 108 ft 28 kts 164°
2026-04-27 03:47 -27.64112 152.71320 110 ft 17 kts 210°
2026-04-27 03:48 -27.64166 152.71213 111 ft 16 kts 276°
2026-04-27 03:48 -27.64089 152.71151 110 ft 14 kts 341°
2026-04-27 03:48 -27.63993 152.71109 110 ft 16 kts 338°
2026-04-27 03:48 -27.63873 152.71056 108 ft 21 kts 339°
2026-04-27 03:49 -27.63716 152.70990 106 ft 27 kts 340°
2026-04-27 03:49 -27.63533 152.70908 105 ft 30 kts 339°
2026-04-27 03:49 -27.63328 152.70819 105 ft 32 kts 338°
2026-04-27 03:49 -27.63126 152.70729 107 ft 28 kts 339°
2026-04-27 03:50 -27.62943 152.70649 107 ft 28 kts 339°
2026-04-27 03:50 -27.62756 152.70568 106 ft 29 kts 338°
2026-04-27 03:50 -27.62594 152.70494 105 ft 18 kts 339°
2026-04-27 03:50 -27.62559 152.70400 102 ft 16 kts 255°
2026-04-27 03:51 -27.62594 152.70281 102 ft 14 kts 265°
2026-04-27 03:51 -27.62552 152.70240 102 ft 5 kts 333°
2026-04-27 03:51 -27.62539 152.70235 102 ft 0 kts 337°